Location: Sternwarte_Laufen
(47.9344°N, 12.9346°E)
Time: 00:48:02
(UTC+02:00)

Envisat - Pass Details

Date: 18 May 2026
Orbit: 761 x 763 km, 98.4° (Epoch: 7 June)

Event Time Altitude Azimuth Distance (km) Brightness Sun altitude
Rises 02:19:10 0° 31° (NNE) 3,234 7.7 -20.5°
Reaches altitude 10° 02:22:46 10° 58° (ENE) 2,301 6.2 -20.3°
Maximum altitude 02:25:12 13° 87° (E) 2,063 5.5 -20.2°
Drops below altitude 10° 02:27:39 10° 116° (ESE) 2,292 5.4 -20.0°
Enters shadow 02:29:34 - 133° (SE) 2,731 5.6 -19.9°
